Location: Pedimozza
(42.0500°N, 9.3500°E)
Time: 00:42:26
(UTC+00:00)

Cosmos 2369 Rocket - Pass Details

Date: 19 August 2019
Orbit: 828 x 853 km, 71.0° (Epoch: 17 September)

Event Time Altitude Azimuth Distance (km) Brightness Sun altitude
Rises 19:03:29 0° 326° (NNW) 3,416 6.5 -8.7°
Reaches altitude 10° 19:06:10 10° 317° (NW) 2,473 5.9 -9.2°
Maximum altitude 19:11:07 32° 256° (WSW) 1,410 3.9 -10.0°
Drops below altitude 10° 19:16:02 10° 195° (SSW) 2,443 4.5 -10.8°
Sets 19:18:40 0° 186° (S) 3,369 5.1 -11.2°
